SCP
0 0 0 0 0 0 0 0 0 0 0 0 0 0 0 0 0 0 0 0 0 0 0 0 0 0 0 0 0 0 0 0 0 0 0 0 0 0 0 0 0 0 0
0 0 0 0 0 0 0 0 0 0 0 0 0 0 0 0 0 0 0 0 0 0 0 0 0 0 0 0 0 0 0 0 0 0 0 0 0 0 0 0 0 0 0
0 0 0 0 0 0 0 0 0 0 0 0 0 0 0 0 0 0 0 0 0 0 0 0 0 0 0 0 0 0 0 0 0 0 0 0 0 0 0 0 0 0 0
0 0 0 0 0 0 0 0 0 0 0 0 0 0 0 0 0 0 0 0 0 0 0 0 0 0 0 0 0 0 0 0 0 0 0 0 0 0 0 0 0 0 0
0 0 0 0 0 0 0 0 0 0 0 0 0 0 0 0 0 0 0 0 0 0 0 0 0 0 0 0 0 0 0 0 0 0 0 0 0 0 0 0 0 0 0
0 0 0 0 0 0 0 0 0 0 0 0 0 0 0 0 0 0 0 0 0 0 0 0 0 0 0 0 0 0 0 0 0 0 0 0 0 0 0 0 0 0 0
0 0 0 0 0 0 0 0 0 0 0 0 0 0 0 0 0 0 0 0 0 0 0 0 0 0 0 0 0 0 0 0 0 0 0 0 0 0 0 0 0 0 0
0 0 0 0 0 0 0 0 0 0 0 0 0 0 0 0 0 0 0 0 0 0 0 0 0 0 0 0 0 0 0 0 0 0 0 0 0 0 0 0 0 0 0
0 0 0 0 0 0 0 0 0 0 0 0 0 0 0 0 0 0 0 0 0 0 0 0 0 0 0 0 0 0 0 0 0 0 0 0 0 0 0 0 0 0 0
0 0 0 0 0 0 0 0 0 0 0 0 0 0 0 0 0 0 0 0 0 0 0 0 0 0 0 0 0 0 0 0 0 0 0 0 0 0 0 0 0 0 0
0 0 0 0 0 0 0 0 0 0 0 0 0 0 0 0 0 0 0 0 0 0 0 0 0 0 0 0 0 0 0 0 0 0 0 0 0 0 0 0 0 0 0
0 0 0 0 0 0 0 0 0 0 0 0 0 0 0 0 0 0 0 0 0 0 0 0 0 0 0 0 0 0 0 0 0 0 0 0 0 0 0 0 0 0 0
0 0 0 0 0 0 0 0 0 0 0 0 0 0 0 0 0 0 0 0 0 0 0 0 0 0 0 0 0 0 0 0 0 0 0 0 0 0 0 0 0 0 0
0 0 0 0 0 0 0 0 0 0 0 0 0 0 0 0 0 0 0 0 0 0 0 0 0 0 0 0 0 0 0 0 0 0 0 0 0 0 0 0 0 0 0
0 0 0 0 0 0 0 0 0 0 0 0 0 0 0 0 0 0 0 0 0 0 0 0 0 0 0 0 0 0 0 0 0 0 0 0 0 0 0 0 0 0 0
0 0 0 0 0 0 0 0 0 0 0 0 0 0 0 0 0 0 0 0 0 0 0 0 0 0 0 0 0 0 0 0 0 0 0 0 0 0 0 0 0 0 0
0 0 0 0 0 0 0 0 0 0 0 0 0 0 0 0 0 0 0 0 0 0 0 0 0 0 0 0 0 0 0 0 0 0 0 0 0 0 0 0 0 0 0
0 0 0 0 0 0 0 0 0 0 0 0 0 0 0 0 0 0 0 0 0 0 0 0 0 0 0 0 0 0 0 0 0 0 0 0 0 0 0 0 0 0 0
0 0 0 0 0 0 0 0 0 0 0 0 0 0 0 0 0 0 0 0 0 0 0 0 0 0 0 0 0 0 0 0 0 0 0 0 0 0 0 0 0 0 0
0 0 0 0 0 0 0 0 0 0 0 0 0 0 0 0 0 0 0 0 0 0 0 0 0 0 0 0 0 0 0 0 0 0 0 0 0 0 0 0 0 0 0
0 0 0 0 0 0 0 0 0 0 0 0 0 0 0 0 0 0 0 0 0 0 0 0 0 0 0 0 0 0 0 0 0 0 0 0 0 0 0 0 0 0 0
0 0 0 0 0 0 0 0 0 0 0 0 0 0 0 0 0 0 0 0 0 0 0 0 0 0 0 0 0 0 0 0 0 0 0 0 0 0 0 0 0 0 0
0 0 0 0 0 0 0 0 0 0 0 0 0 0 0 0 0 0 0 0 0 0 0 0 0 0 0 0 0 0 0 0 0 0 0 0 0 0 0 0 0 0 0
0 0 0 0 0 0 0 0 0 0 0 0 0 0 0 0 0 0 0 0 0 0 0 0 0 0 0 0 0 0 0 0 0 0 0 0 0 0 0 0 0 0 0
0 0 0 0 0 0 0 0 0 0 0 0 0 0 0 0 0 0 0 0 0 0 0 0 0 0 0 0 0 0 0 0 0 0 0 0 0 0 0 0 0 0 0
0 0 0 0 0 0 0 0 0 0 0 0 0 0 0 0 0 0 0 0 0 0 0 0 0 0 0 0 0 0 0 0 0 0 0 0 0 0 0 0 0 0 0
Wind_Speed
4 3 2 2 2 2 2 2 2 2 2 2 2 2 1 1 0 1 2 4 4 3 3 3 3 3 4 5 5 6 6 7 8 8 9 10 10 11 11 12 12 13 13
5 4 3 3 2 2 2 3 3 2 1 1 1 1 1 0 0 0 1 3 5 4 3 3 3 4 4 4 4 5 6 7 8 8 9 9 10 11 11 12 12 13 13
6 5 4 3 3 3 3 3 3 2 2 1 1 0 0 1 1 1 1 1 2 4 4 3 4 4 4 5 5 5 6 7 8 8 9 10 10 11 12 12 13 13 14
7 6 5 4 4 3 3 3 2 2 1 1 0 0 0 0 1 1 1 1 1 1 3 4 4 5 5 6 6 6 7 8 8 8 9 10 11 12 12 13 13 14 14
8 6 5 4 5 4 3 3 2 2 2 1 1 0 1 1 1 1 1 1 1 1 1 3 5 5 6 6 7 7 8 8 8 9 10 11 11 12 13 14 14 14 15
9 7 5 6 6 4 3 3 3 2 2 2 1 0 1 1 1 1 2 1 1 1 1 1 2 3 6 7 8 8 9 10 10 11 11 12 12 13 14 15 15 15 16
10 8 6 6 6 5 5 5 3 3 1 2 2 1 2 1 2 2 1 1 1 1 1 1 1 1 2 6 8 9 10 11 11 12 13 13 14 14 15 15 16 16 17
10 9 8 7 7 5 6 6 4 3 2 2 3 1 2 3 2 1 1 1 2 1 1 1 1 1 1 1 5 8 10 11 12 13 14 14 15 15 16 16 16 17 17
11 10 10 8 8 7 7 7 6 6 4 2 2 3 3 3 2 2 1 1 1 1 1 1 1 1 1 1 2 6 9 11 13 14 15 15 16 16 17 17 17 18 18
11 11 10 10 9 7 7 7 7 5 5 4 2 1 2 3 2 2 2 1 1 1 2 1 1 1 1 1 3 6 9 11 13 14 15 15 16 17 17 17 17 18 18
10 11 11 10 9 8 8 8 7 6 5 5 4 3 2 1 1 2 3 3 2 1 1 2 1 1 1 2 2 6 9 11 13 14 14 15 16 17 17 17 18 18 19
8 11 11 10 10 8 9 8 8 9 7 6 4 4 4 3 3 3 4 3 3 2 1 1 1 2 1 2 4 7 9 11 12 13 14 14 15 16 17 17 18 18 19
9 12 11 11 9 9 9 8 8 8 8 7 7 5 4 4 3 4 3 3 2 2 2 1 2 1 1 1 3 7 8 11 12 12 13 13 14 15 16 17 18 18 19
11 11 12 11 10 10 9 9 7 8 7 7 7 7 4 4 3 4 4 3 2 2 2 3 1 1 1 1 3 5 5 10 11 12 13 13 13 14 15 16 17 18 18
8 11 12 11 10 10 10 9 7 8 7 7 7 7 5 4 4 3 3 4 4 3 3 3 2 2 1 1 4 2 3 9 11 12 13 13 13 14 15 15 16 17 17
10 11 12 12 11 10 10 10 7 7 8 7 6 7 6 4 4 3 3 3 3 4 4 3 3 2 1 2 5 3 4 10 11 13 13 12 13 13 14 15 16 16 17
12 12 13 12 12 11 11 10 9 9 9 8 7 7 7 6 4 4 3 3 3 3 4 3 2 1 1 2 3 3 3 4 5 11 12 13 13 13 14 14 15 16 16
12 12 12 12 12 11 11 11 11 10 10 10 9 8 7 5 6 4 4 5 4 4 4 4 2 2 2 2 3 4 4 4 4 10 12 13 13 13 13 13 14 14 15
12 12 12 13 12 12 12 11 11 10 10 10 9 9 8 8 7 5 5 5 4 3 3 3 2 1 1 2 2 4 4 3 5 7 10 11 12 13 13 13 14 14 14
13 13 13 12 12 11 11 11 10 10 9 8 8 8 8 9 9 8 6 6 4 4 3 2 2 1 2 2 1 3 4 4 5 4 6 9 10 12 12 14 14 14 14
12 12 12 11 10 10 10 11 11 10 9 8 7 7 7 9 9 8 6 6 5 4 3 2 2 1 1 1 2 2 4 4 5 2 4 5 5 4 6 10 12 13 14
11 11 12 12 11 9 13 16 13 10 9 9 8 7 6 7 9 10 9 8 8 6 5 3 2 3 3 2 2 2 2 3 4 2 3 5 3 4 5 4 11 14 14
11 11 11 11 11 12 16 18 16 10 9 9 8 7 6 6 8 5 6 6 6 6 6 5 4 4 3 3 2 2 2 3 4 3 2 4 3 4 5 6 13 13 14
10 10 10 10 10 11 17 18 17 10 8 8 8 8 8 7 7 7 6 4 3 2 3 3 3 3 2 2 2 1 2 3 4 3 1 3 3 5 6 5 10 13 14
9 9 9 10 10 10 16 17 16 8 7 7 6 7 8 7 10 11 8 6 4 2 2 3 2 1 1 0 1 1 1 2 3 2 1 2 3 5 5 4 6 13 15
8 8 8 8 9 9 14 17 16 8 7 6 5 6 9 9 11 12 8 7 5 3 3 2 1 2 2 1 2 1 1 1 2 3 1 2 2 4 5 4 4 5 7
Wind_Direction
154 151 144 136 132 124 124 118 110 104 98 95 97 108 113 110 30 348 334 350 356 356 15 21 20 15 16 16 19 16 9 4 3 2 360 357 356 353 350 348 346 344 342
160 159 157 155 157 150 143 137 137 130 119 110 105 116 143 172 232 316 327 342 355 354 349 0 5 5 0 2 9 1 355 351 351 351 349 348 346 344 342 340 338 337 336
167 166 165 169 170 153 140 125 119 110 113 108 107 130 165 213 223 262 302 326 339 348 346 344 352 351 349 348 347 348 344 341 338 339 339 338 338 337 336 334 333 332 331
170 168 170 177 167 151 145 141 135 123 123 128 142 273 262 253 247 247 260 282 316 332 339 336 337 339 336 334 334 335 335 334 332 332 331 331 330 330 328 327 328 326 325
175 172 176 175 162 154 156 157 141 144 155 165 186 256 290 265 261 248 243 253 259 288 314 332 337 335 331 328 328 329 328 328 327 325 324 323 324 324 324 323 322 321 321
177 174 173 171 163 159 163 160 149 140 149 158 139 343 297 277 264 243 248 257 263 265 268 310 336 338 335 330 328 326 324 323 322 320 318 318 318 318 319 319 318 318 318
178 177 176 171 171 175 176 166 150 149 149 136 100 350 319 282 252 242 236 247 267 265 261 268 296 322 328 329 327 324 322 321 321 320 319 316 315 315 315 315 315 315 315
181 183 179 178 177 173 171 173 159 150 155 155 141 123 323 328 312 256 234 229 249 267 261 247 247 271 286 307 317 323 322 319 318 318 317 316 315 314 313 314 314 314 314
186 186 184 179 179 179 184 184 177 166 167 180 166 153 165 235 297 311 273 254 253 245 255 259 252 262 273 281 295 310 314 313 313 314 314 314 313 313 313 313 313 313 313
187 187 184 183 183 185 186 186 184 176 159 172 188 191 170 161 170 301 310 295 261 249 245 240 251 260 267 273 290 301 308 310 310 310 311 312 313 312 313 314 314 313 313
190 189 187 186 186 189 189 183 180 183 178 172 171 161 158 135 159 185 270 301 319 275 238 232 243 261 266 272 279 298 306 307 307 308 310 311 312 313 314 315 314 313 312
191 192 189 190 189 188 189 187 186 186 188 180 175 168 165 169 184 185 222 251 268 277 269 244 240 256 267 274 290 304 305 306 307 307 309 310 311 313 313 314 314 313 313
193 195 191 192 191 190 186 182 184 188 188 187 187 190 190 192 169 171 185 221 248 275 288 272 241 254 279 268 286 307 306 308 308 309 310 310 311 311 312 313 312 313 313
197 189 190 191 190 185 182 181 185 190 188 192 193 190 192 201 184 178 175 175 230 281 276 266 281 251 273 275 294 312 305 308 310 310 310 310 310 310 311 312 312 313 314
185 182 185 187 187 184 182 180 189 190 186 192 193 193 197 198 191 191 183 176 182 235 265 252 255 263 267 272 303 299 291 303 313 311 309 309 311 312 312 313 313 313 314
181 179 183 185 185 183 182 182 185 185 184 190 187 190 198 194 190 186 188 189 189 197 236 246 232 249 277 304 308 302 291 313 313 312 312 315 315 315 313 314 314 315 314
182 182 184 184 184 184 182 184 188 181 186 190 188 191 199 189 186 187 182 184 193 188 226 255 237 250 259 285 309 306 299 298 307 312 314 317 317 317 316 317 317 316 316
185 184 180 182 185 185 184 186 188 185 188 192 192 189 196 183 188 185 183 193 197 197 207 243 252 248 256 276 296 304 312 311 301 308 315 317 318 318 319 319 318 318 318
182 180 179 184 186 186 185 188 187 188 191 193 189 190 190 180 191 189 189 193 196 194 200 217 247 245 268 295 312 308 309 304 309 310 315 317 316 319 322 322 320 321 320
181 182 184 186 186 184 184 184 184 184 186 188 188 189 186 187 191 187 188 192 184 184 187 207 237 255 268 291 301 306 316 315 312 311 312 316 316 321 323 323 322 322 321
182 180 179 181 181 181 185 182 182 182 182 182 185 187 187 185 186 182 179 180 176 179 180 199 225 247 262 297 293 288 304 316 306 295 317 312 311 308 315 320 321 321 323
177 176 181 182 183 187 183 179 177 178 178 179 181 180 177 180 183 185 184 175 171 174 184 188 208 231 244 247 258 293 306 326 307 312 321 304 302 300 306 302 314 320 324
175 178 182 182 186 186 177 177 176 172 175 179 178 173 172 178 174 171 177 173 177 179 177 175 197 218 225 228 229 263 279 279 274 291 313 290 296 299 304 309 316 318 324
177 178 180 181 180 181 176 175 171 170 170 174 175 174 171 169 168 161 154 154 159 175 186 180 191 209 214 210 202 221 255 284 281 283 288 281 298 301 309 306 312 322 328
175 175 175 176 178 178 175 171 163 164 165 168 167 166 166 167 170 163 154 156 155 162 145 143 141 129 89 43 86 79 8 346 309 292 296 288 298 309 301 294 308 321 326
170 164 167 173 174 172 171 168 163 160 161 160 157 164 170 169 169 165 161 162 169 179 152 127 95 45 41 28 37 108 184 271 297 290 292 309 298 325 312 295 299 311 318